This is the latest recevied weather packets stored in our database for station/object KD0ISH. If no packets are shown the sender has not sent any weather packets the latest 10 day(s).
| Time | Temp. | Humidity | Pressure | Rain* | Wind** | Luminosity | Snow |
|---|---|---|---|---|---|---|---|
| 1776991989 | 22.22° C | 79% | 1005.4 hPa | 0 mm | - | 0 W/m² | - |
| 1776991687 | 22.22° C | 79% | 1005.2 hPa | 0 mm | - | 0 W/m² | - |
| 1776991383 | 22.22° C | 79% | 1005.2 hPa | 0 mm | - | 0 W/m² | - |
| 1776991078 | 22.22° C | 79% | 1005.1 hPa | 0 mm | - | 0 W/m² | - |
| 1776990775 | 22.22° C | 79% | 1005.4 hPa | 0 mm | - | 1 W/m² | - |
| 1776990473 | 22.22° C | 79% | 1005.1 hPa | 0 mm | - | 2 W/m² | - |
| 1776990169 | 22.22° C | 79% | 1005.1 hPa | 0 mm | - | 3 W/m² | - |
| 1776989864 | 22.22° C | 79% | 1005 hPa | 0 mm | - | 2 W/m² | - |
| 1776989559 | 22.22° C | 79% | 1004.9 hPa | 0 mm | - | 4 W/m² | - |
| 1776989257 | 22.22° C | 79% | 1004.6 hPa | 0 mm | - | 6 W/m² | - |
| 1776988953 | 22.22° C | 79% | 1004.5 hPa | 0 mm | - | 8 W/m² | - |
| 1776988650 | 22.22° C | 78% | 1004.5 hPa | 0 mm | - | 15 W/m² | - |
| 1776988347 | 22.22° C | 78% | 1004.5 hPa | 0 mm | - | 45 W/m² | - |
| 1776988042 | 22.22° C | 78% | 1004.6 hPa | 0 mm | - | 47 W/m² | - |
| 1776987739 | 22.22° C | 78% | 1004.7 hPa | 0 mm | - | 34 W/m² | - |
| 1776987436 | 22.78° C | 78% | 1004.9 hPa | 0 mm | - | 51 W/m² | - |
| 1776987133 | 22.22° C | 78% | 1005.3 hPa | 0 mm | - | 55 W/m² | - |
| 1776986828 | 22.22° C | 78% | 1005.4 hPa | 0 mm | - | 52 W/m² | - |
| 1776986525 | 22.22° C | 78% | 1005.4 hPa | 0 mm | - | 42 W/m² | - |
| 1776986221 | 22.22° C | 79% | 1005.4 hPa | 0 mm | - | 45 W/m² | - |
| 1776985919 | 22.22° C | 79% | 1005.6 hPa | 0 mm | - | 52 W/m² | - |
| 1776985616 | 22.22° C | 79% | 1005.8 hPa | 0 mm | - | 46 W/m² | - |
| 1776985311 | 22.22° C | 79% | 1005.8 hPa | 0 mm | - | 51 W/m² | - |
| 1776985008 | 22.22° C | 79% | 1005.9 hPa | 0 mm | - | 53 W/m² | - |
| 1776984703 | 22.78° C | 79% | 1005.9 hPa | 0 mm | - | 62 W/m² | - |
* Rain latest hour (hover to see other rain measurements)
** Current wind speed in m/s (hover to see current wind gust speed)